Location: Alajosh�zatanya
(47.8833°N, 20.6667°E)
Time: 17:54:34
(UTC+00:00)

Daily predictions for brighter satellites

Satellite Brightness Start Highest point End
(mag) Time Altitude Azimuth Time Altitude Azimuth Time Altitude Azimuth
Cosmos 1818 3.8 19:07:40 10° SSW 19:12:51 49° ESE 19:18:06 10° NE
CZ-2C R/B 3.2 19:07:32 10° N 19:12:56 66° WNW 19:18:11 10° SSW
Resurs 01 Rocket 1.8 19:10:26 10° S 19:14:51 77° WSW 19:19:17 10° NNW
SL-16 R/B 2.6 19:09:48 10° SW 19:15:28 72° WNW 19:21:10 10° NNE
Cosmos-2242 3.6 19:13:20 10° N 19:17:29 42° ENE 19:21:38 10° SSE
USA 215 3.9 19:15:38 10° ENE 19:21:25 32° SE 19:27:08 10° S
ERS-1 Rocket 3.8 19:17:33 10° SE 19:22:07 36° ENE 19:26:43 10° N
GEOS 3 Rocket 4.0 19:18:36 10° NE 19:23:46 44° ESE 19:28:52 10° SSW
Cosmos 2278 Rocket 3.9 19:20:43 10° N 19:25:12 23° NE 19:29:40 10° E
ATLAS 5 CENTAUR R/B 1.7 19:24:35 10° SSW 19:28:35 51° ESE 19:33:02 10° NE
Cosmos 1844 Rocket 2.7 19:25:13 10° NNW 19:30:50 82° ENE 19:36:25 10° SSE
USA 245 3.1 19:31:16 10° SSE 19:34:33 76° ENE 19:38:44 10° N
Meteor 2-10 Rocket 3.8 19:30:33 10° NNW 19:35:37 68° W 19:40:50 10° S
Cosmos 1758 Rocket 3.6 19:33:12 10° S 19:37:41 72° E 19:42:10 10° NNE
Cosmos 1400 Rocket 2.8 19:34:06 10° N 19:38:06 68° ENE 19:42:00 10° SSE
SPOT 5 3.5 19:34:46 10° SE 19:39:31 43° ENE 19:44:03 10° N
Spot 2 Rocket 3.6 19:37:15 10° SSE 19:42:20 87° WSW 19:47:30 10° NNW
Lacrosse 5 rocket 3.7 19:39:00 10° WNW 19:42:40 27° NNW 19:46:09 10° NE
BREEZE-M DEB (TANK) 4.1 19:39:10 10° SSW 19:43:15 20° SSE 19:45:20 10° ESE
Cosmos 2181 Rocket 4.4 19:37:27 10° N 19:43:38 50° ENE 19:49:24 11° SSE
ATLAS 5 CENTAUR R/B 4.2 19:42:58 10° W 19:44:58 15° NW 19:46:27 10° N
Cosmos 1745 Rocket 4.2 19:41:24 10° SSW 19:47:35 75° W 19:53:53 10° N
Landsat 7 3.9 19:43:23 10° SSE 19:48:09 83° WSW 19:52:57 10° NNW
USA 267 3.8 19:48:30 10° E 19:54:54 58° NNE 20:01:19 10° NW
SPOT 1/Viking Rocket 3.6 19:51:22 10° SSE 19:56:31 85° WSW 20:01:43 10° NNW
Cosmos 1953 Rocket 3.5 19:56:30 10° S 20:00:47 68° E 20:05:05 10° NNE
Alouette 2 Rocket 3.7 19:57:26 10° NNW 20:01:13 76° WSW 20:06:10 11° S
Cosmos 2322 Rocket 3.7 19:57:39 10° WSW 20:02:56 41° NW 20:08:15 10° NNE
Cosmos 1328 4.1 20:03:15 10° SSW 20:07:11 67° W 20:11:10 10° N
Cosmos 2084 3.8 20:03:35 10° NW 20:08:02 63° NE 20:11:33 16° SE
Cosmos 1842 Rocket 4.3 20:04:50 10° N 20:08:57 39° ENE 20:11:52 17° SE
SAR-Lupe-2 3.5 20:06:00 10° NNE 20:09:37 88° WNW 20:13:12 10° SSW
Cosmos 1455 4.0 20:08:48 10° NNW 20:12:08 28° W 20:15:28 10° SSW
Cosmos 1825 Rocket 4.2 20:12:11 10° SSW 20:16:34 57° WNW 20:20:59 10° N
ATLAS CENTAUR R/B 1.1 20:16:16 10° NW 20:19:59 76° NE 20:22:16 21° SE
COSMOS 2428 2.7 20:16:56 10° S 20:22:30 61° ESE 20:28:06 10° NNE
Cosmos 1844 4.4 20:19:16 10° NW 20:24:50 49° WSW 20:29:32 14° S
NOSS 3-4 (A) 4.5 20:18:28 10° NW 20:25:05 50° NE 20:32:23 10° ESE
NOSS 3-4 (C) 4.5 20:18:34 10° NW 20:25:11 49° NE 20:32:29 10° ESE
Cosmos 2322 3.8 20:20:44 10° SSW 20:26:27 81° WNW 20:32:14 10° NNE
NOSS 0 Rocket 4.5 20:23:36 16° SSE 20:28:01 38° ESE 20:33:38 10° NE
Meteor 1-27 4.3 20:25:28 10° NNW 20:31:13 85° W 20:35:45 17° S
Cosmos 1869 3.6 20:27:42 10° N 20:31:37 53° ENE 20:33:50 24° SE
Cosmos 1709 Rocket 4.5 20:26:29 10° SSW 20:32:43 62° WNW 20:39:02 10° N
Terra 1.8 20:31:40 19° SSE 20:35:06 83° WSW 20:39:55 10° NNW
NOSS 3-3 (A) 3.9 20:29:21 10° SSW 20:35:10 72° SE 20:41:46 10° NE
NOSS 3-3 (C) 3.9 20:29:27 10° SSW 20:35:16 71° SE 20:41:53 10° NE
Cosmos 2237 Rocket 3.0 20:33:12 20° SSE 20:36:15 33° ESE 20:41:16 10° NE
CARTOSAT-1 4.2 20:32:57 15° S 20:36:22 49° W 20:40:34 10° NNW
Atlas Centaur 2 4.1 20:34:06 10° SW 20:37:59 16° S 20:38:47 16° S
Cosmos 2219 Rocket 2.1 20:33:00 10° SSW 20:38:36 88° ESE 20:44:14 10° NNE
Cosmos 2360 Rocket 3.7 20:35:35 10° WSW 20:40:50 39° NW 20:46:09 10° NNE
Cosmos 1538 Rocket 4.0 20:35:57 10° SSW 20:41:19 90° WNW 20:46:41 10° NNE
DELTA 2 R/B (1) 4.4 20:41:54 10° SW 20:46:27 26° SSE 20:49:12 18° ESE
Cosmos 2184 Rocket 4.0 20:42:26 18° S 20:47:14 71° E 20:53:31 10° NNE
Cosmos 2333 Rocket 2.4 20:42:45 10° SSW 20:48:26 76° WNW 20:54:12 10° NNE
Meteor 2-2 Rocket 4.3 20:43:27 10° N 20:49:19 81° ENE 20:53:04 23° SSE
Thor Agena Rocket 4.3 20:45:51 10° NNE 20:50:30 34° E 20:52:43 24° SE
Cosmos 1315 Rocket 3.5 20:47:39 10° NNW 20:51:37 50° W 20:54:13 20° SSW
ATLAS 2AS CENTAUR R/B 3.2 20:45:33 10° NW 20:53:11 62° NE 20:59:01 16° ESE
Cosmos 2221 2.6 20:55:44 10° NNW 21:00:07 75° W 21:02:29 26° S
ERS-1 Rocket 4.3 20:56:51 12° SSW 21:00:56 33° W 21:05:29 10° NNW
USA 215 3.3 20:58:18 10° NE 21:04:55 87° NNW 21:11:28 10° WSW
Iridium 2 4.3 21:02:34 10° N 21:06:15 44° E 21:07:33 31° SE
Cosmos 1892 2.6 21:07:01 33° S 21:08:36 77° E 21:12:24 10° NNE
EO 1 Del DPAF 3.9 21:05:37 10° NNE 21:09:09 37° E 21:09:59 32° SE
Cosmos 2278 Rocket 2.2 21:04:16 10° NNW 21:09:57 79° WSW 21:13:09 27° SSE
Cosmos 2112 Rocket 4.3 21:08:05 27° SSE 21:10:46 50° ESE 21:15:57 10° NNE
ATLAS 5 CENTAUR R/B 3.7 21:09:39 10° W 21:13:28 29° NNW 21:17:44 10° NNE
Cosmos 158 Rocket 3.9 21:13:11 29° S 21:15:29 57° ESE 21:20:18 10° NNE
Cosmos 1606 4.3 21:12:40 10° NNE 21:15:56 25° ENE 21:17:19 20° ESE
Aureole 2 Rocket 3.8 21:14:02 10° N 21:16:18 21° ENE 21:17:00 19° E
Gblst 52 Del rocket 4.5 21:11:11 10° WNW 21:16:52 59° SSW 21:20:33 25° SE
Cosmos 1943 Rocket 4.0 21:13:14 10° N 21:17:52 25° NE 21:22:26 10° E
SL-16 R/B 3.3 21:18:55 24° SE 21:20:36 28° ESE 21:25:20 10° NE
Spot 4 3.9 21:20:00 31° SSE 21:22:17 74° ENE 21:27:04 10° N
Lacrosse 5 rocket 3.7 21:19:28 10° NW 21:22:50 23° N 21:26:02 10° ENE
Cosmos 2056 Rocket 3.8 21:19:21 10° NNW 21:24:45 64° ENE 21:27:39 27° SE
Nadezhda 3 Rocket 4.0 21:19:02 10° N 21:25:27 85° W 21:29:11 27° S
Cosmos 2154 Rocket 3.9 21:23:04 23° S 21:27:05 89° ESE 21:33:20 10° N
Cosmos 2058 3.1 21:25:00 28° SSW 21:27:06 69° W 21:31:15 10° N
Cosmos 1408 2.4 21:29:06 46° S 21:30:05 84° E 21:33:41 10° N
Cosmos 2341 Rocket 4.2 21:26:53 28° SSE 21:30:08 55° E 21:36:11 10° NNE
In-Cosmos 22 Rocket 4.4 21:29:55 20° SSW 21:33:35 64° WNW 21:38:53 10° N
TSX-5 4.5 21:33:12 10° NW 21:36:34 40° WSW 21:37:36 33° SSW
USA 267 3.3 21:34:05 26° SSE 21:37:54 62° SW 21:44:26 10° WNW
Cosmos 1076 Rocket 3.9 21:36:08 27° SSW 21:38:20 60° WNW 21:42:35 10° N
Cosmos 1680 Rocket 3.5 21:35:41 23° SSW 21:39:07 84° WNW 21:44:29 10° NNE
CZ-4C R/B 4.2 21:40:20 10° NW 21:46:31 36° NNE 21:53:38 10° E
Cosmos 2151 2.9 21:47:18 41° S 21:48:43 79° E 21:53:01 10° NNE
SL-8 Rocket 4.2 21:46:21 30° SSE 21:49:20 58° E 21:55:22 10° NNE
EO 1 Delta rocket 4.2 21:44:21 10° N 21:49:24 83° W 21:52:50 27° SSW
Helios 1A 4.2 21:48:16 24° ESE 21:49:59 33° ENE 21:53:45 10° N
COSMOS 2455 3.8 21:44:28 10° NNW 21:50:14 43° NE 21:55:18 13° ESE
Cosmos 1452 Rocket 4.4 21:46:42 10° NNW 21:51:43 42° ENE 21:54:48 21° ESE
ATLAS CENTAUR R/B 3.5 21:57:12 10° W 21:58:15 11° WSW 21:58:26 11° WSW
Cosmos 1825 2.3 21:58:09 42° SW 21:59:14 66° W 22:03:01 10° N
ALOS 2 2.5 21:58:03 42° SSE 21:59:32 86° ENE 22:03:57 10° NNW
Cosmos 1408 Rocket 4.3 21:58:51 33° SE 21:59:58 40° E 22:04:06 10° NNE
Cosmos 1340 3.4 21:59:38 36° ESE 22:00:06 38° E 22:03:36 10° NNE
Cosmos 1933 3.6 21:57:21 10° N 22:01:21 59° ENE 22:02:24 43° SE
Cosmos 1980 4.2 21:56:55 14° SW 22:01:46 58° WNW 22:07:21 10° NNE
Cosmos 1151 Rocket 3.1 21:57:33 10° N 22:01:53 66° E 22:03:13 42° SE
Cosmos 2369 Rocket 3.5 21:57:20 10° NNW 22:02:24 33° NE 22:07:04 12° ESE
IRIDIUM 103 4.4 22:01:14 35° SSE 22:03:20 65° E 22:08:32 10° N
APEX 3.8 22:02:21 10° N 22:04:50 31° NE 22:05:07 30° ENE
Cosmos 44 3.1 22:05:15 46° S 22:06:12 58° ESE 22:10:33 10° NE
Cosmos 371 Rocket 3.4 22:04:56 10° NNW 22:09:49 72° ENE 22:11:47 36° SE
GP-B 3.0 22:05:31 10° N 22:10:00 86° E 22:11:23 44° S
Terra 4.3 22:12:29 10° W 22:13:36 11° W 22:14:45 10° WNW
Cosmos 1339 Rocket 4.5 22:08:23 10° N 22:14:45 88° W 22:17:54 33° S
Cosmos 1624 Rocket 4.4 22:10:03 10° NNW 22:15:06 50° WSW 22:16:57 34° SSW
NOSS 3-4 (A) 4.2 22:09:24 10° NW 22:16:11 52° WSW 22:19:47 30° S
NOSS 3-4 (C) 4.2 22:09:30 10° NW 22:16:17 52° WSW 22:19:55 30° S
Helios 1B rocket 4.2 22:15:17 10° NE 22:18:19 20° E 22:19:04 19° ESE
SL-4 R/B 2.9 22:19:54 24° N 22:19:54 24° N 22:20:55 10° N
Nimbus 7 Rocket 4.4 22:13:14 10° NNE 22:19:11 81° WNW 22:22:22 29° SSW
Cosmos 2237 Rocket 3.1 22:14:58 11° SW 22:20:08 47° NW 22:25:39 10° NNE
Genesis I 4.0 22:18:36 20° WSW 22:21:00 48° NW 22:24:49 10° NNE
IRIDIUM 106 4.3 22:19:31 37° S 22:21:38 88° W 22:26:54 10° N
Cosmos 1782 3.6 22:18:42 10° N 22:22:30 43° ENE 22:23:34 34° ESE
CREW DRAGON DEMO-1 DEB 2.9 22:22:54 74° NE 22:22:54 74° NE 22:25:44 10° ENE
Cosmos 2344 3.6 22:16:02 12° SW 22:23:03 84° NW 22:31:19 10° NE
Cosmos 1346 Rocket 3.1 22:28:04 44° SE 22:28:42 50° E 22:32:32 10° NNE
RESURS DK-1 3.8 22:36:53 10° NNW 22:40:41 33° NE 22:43:23 16° ESE
Cosmos 1515 Rocket 3.4 22:37:41 10° N 22:42:04 83° W 22:43:15 48° S
BREEZE-M DEB (TANK) 3.6 22:40:23 10° W 22:41:22 17° W 22:41:22 17° W
CZ-4 R/B 4.4 22:38:40 10° NNE 22:43:10 45° E 22:44:35 34° SE
ATLAS 2AS CENTAUR R/B 3.5 22:37:06 10° NW 22:43:48 37° WSW 22:46:24 28° SSW
Cosmos 1766 Rocket 4.4 22:44:24 29° SW 22:46:05 42° WNW 22:50:18 10° N
USA 215 4.3 22:41:23 10° NE 22:47:35 46° NNW 22:53:46 10° W
Cosmos 1328 Rocket 4.2 22:45:17 10° NNW 22:49:21 41° W 22:50:25 35° SW
Gbstr 26 Del rocket 2.7 22:49:28 55° SSE 22:49:38 55° SSE 22:53:47 10° ENE
Aureole 2 Rocket 4.2 22:47:40 10° WNW 22:48:59 17° W 22:48:59 17° W
Cosmos 1606 4.1 22:48:17 10° NNW 22:51:37 27° W 22:52:19 26° WSW
Cosmos 44 Rocket 4.5 22:51:44 24° SE 22:52:19 25° ESE 22:56:09 10° ENE
Cosmos 2278 Rocket 4.3 22:50:43 10° WNW 22:53:03 13° W 22:54:59 11° WSW
Cosmos 2218 Rocket 4.3 22:50:54 28° SSW 22:54:20 60° WNW 23:00:35 10° N
Cosmos 2297 4.3 22:49:58 10° NW 22:55:20 42° WSW 22:57:11 32° SSW
Cosmos 304 Rocket 3.7 22:51:23 10° NNW 22:56:15 89° WSW 22:58:04 39° SSE
Cosmos 2228 Rocket 3.1 22:53:09 10° N 22:57:46 80° E 22:59:19 42° SSE
Cosmos 1943 4.0 22:56:06 29° SSE 22:58:06 37° ESE 23:03:16 10° NE
Cosmos 1862 4.1 22:58:33 33° SE 22:59:28 39° E 23:03:11 10° NNE
Cosmos 2366 rocket 4.4 22:56:35 27° SW 23:00:02 57° WNW 23:06:18 10° N
Cosmos 1633 2.6 23:01:11 57° SW 23:01:44 70° W 23:05:22 10° N
Cosmos 494 Rocket 4.5 23:00:18 34° SSE 23:02:03 47° ESE 23:07:00 10° NNE
Cosmos 1943 Rocket 2.1 22:56:31 10° NNW 23:02:12 73° WSW 23:04:40 35° S
Lacrosse 5 rocket 1.9 22:58:46 10° NW 23:02:42 52° NNE 23:06:18 11° ESE
Landsat 4 3.7 22:59:22 10° N 23:03:10 77° WNW 23:03:59 53° SW
CRYOSAT 2 4.4 22:58:46 10° N 23:03:38 68° E 23:05:26 38° SSE
SL-16 R/B 2.7 23:00:47 22° SW 23:04:23 54° WNW 23:10:00 10° NNE
Cosmos 1821 Rocket 4.0 23:05:52 33° S 23:08:48 77° E 23:14:55 10° NNE
Cosmos 2123 Rocket 4.4 23:05:26 10° N 23:11:33 56° ENE 23:15:27 22° SSE
BREEZE-M DEB (TANK) 4.3 23:03:07 10° SW 23:13:19 43° SSE 23:17:07 10° E
Cosmos 1743 Rocket 3.6 23:12:36 42° SW 23:13:55 67° WNW 23:18:15 10° N
Sich 1 3.7 23:15:28 33° SE 23:16:52 45° E 23:21:00 10° NNE
Cosmos 1331 Rocket 4.0 23:15:27 10° NNW 23:20:48 83° ENE 23:23:39 28° SSE
Cosmos 1048 Rocket 4.0 23:19:32 34° SSW 23:21:55 79° WNW 23:27:13 10° NNE
Helios 1A 4.3 23:24:53 24° WSW 23:25:35 26° W 23:29:06 10° NW
Meteor 1-29 3.0 23:25:19 10° NNE 23:28:41 64° ESE 23:29:10 55° SSE
Cosmos 405 4.0 23:25:45 10° NNW 23:28:55 31° W 23:29:08 31° W
SL-4 R/B 3.5 23:32:31 14° ESE 23:32:31 14° ESE 23:33:49 10° ENE
Meteor 1-10 Rocket 4.1 23:27:33 10° NNW 23:33:09 80° W 23:35:50 32° S
PSLV R/B 3.8 23:30:54 10° N 23:35:03 57° WNW 23:36:34 35° SW
Meteor 2-6 Rocket 4.2 23:30:07 10° NNW 23:35:33 63° W 23:37:53 33° SSW
Cosmos 389 Rocket 3.2 23:32:25 10° N 23:35:51 47° ENE 23:37:05 31° SE
CZ-4C R/B 2.9 23:28:41 10° NW 23:35:52 86° SW 23:44:10 10° SE
COSMOS 2455 3.3 23:30:33 10° NW 23:36:12 43° WSW 23:38:24 31° SSW
SL-16 R/B 3.2 23:31:34 12° SE 23:37:12 52° ENE 23:43:14 10° N
Cosmos 1110 Rocket 4.0 23:32:39 10° NNW 23:37:54 66° WSW 23:40:15 33° S
Cosmos 1603 3.7 23:36:25 32° SSW 23:39:12 89° ESE 23:44:58 10° NNE
IRAS Rocket 4.4 23:37:09 21° SSE 23:40:50 72° ENE 23:46:20 10° NNW
Cosmos 1269 Rocket 4.2 23:39:59 33° S 23:42:19 65° ESE 23:47:35 10° NNE
Resurs 1-4 Rocket 3.1 23:40:43 10° NNE 23:45:41 38° E 23:48:45 20° SSE
Cosmos 1666 Rocket 3.8 23:44:14 33° SSE 23:46:01 62° E 23:50:22 10° NNE
Cosmos 2369 Rocket 2.5 23:41:15 10° NW 23:46:36 47° WSW 23:48:49 31° SSW
SeaSat 1 2.9 23:44:21 10° NE 23:49:10 49° ESE 23:51:20 29° S
ISS -3.2 23:51:00 40° SE 23:51:00 40° SE 23:54:01 10° ENE
Meteor 2-20 Rocket 4.5 23:45:03 10° N 23:51:13 83° E 23:55:17 23° SSE
Helios 1B rocket 3.2 23:49:51 10° N 23:53:47 43° WNW 23:55:23 29° WSW
